Find Starlink 37813

NORAD ID: 100289 Int'l Des: 2026-183 Owner: SPXS Country: US Constellation: starlink operational

当前视图

正在加载3D地球...

About Starlink 37813

Starlink 37813 (NORAD 100289) is a starlink constellation satellite launched Aug 11, 2026 by SPXS of US. with a mass of 575.00 kg.

即将过境

Passes for default location (London). Set your location on the main map for personalized predictions.

高度历史

Loading altitude history...

两行轨道根数

1 A0289U 26183T 26262.55994320 .00023956 00000-0 43712-3 0 9999
2 A0289 53.1589 262.9054 0001230 78.3966 281.7181 15.49332059 6145
Epoch: Sep 19, 2026 • Age: 26 hours

当前状态

高度 437.4 km
远地点 / 近地点 N/A
速度 7.65 km/s
星下点 -52.08°S, 78.63°W
发射日期 Aug 11, 2026
运行时间 0.1 years
类型 internet

技术详情

分类 Payload
质量 575.00 kg
干质量 530.00 kg
长度 0.30 m
跨度 29.00 m
形状 ? Box + pan
制造商 SPXS
平台类型 Starlink V2MO
阶段状态 In Orbit
所有者/国家 SPXS/US

Most Searched